ELEKTRON 3 DEB, 831

Orbit data source: Space-Track

ELEKTRON 3 DEB, 831 is space debris in LEO originally from a launch on Fri, 10 Jul 1964 UTC launched from the Tyuratam Missile And Space Complex (TTMTR). Debris objects in space refer to the collection of defunct objects orbiting the Earth. Examples of debris include non-operational satellites, rocket bodies, and fragments generated from explosions, collisions, or faulty payload assembly.

Loading next visibility...
Identifier
831, 1964-038C
Orbit
LEO
Country
Flag of CISCIS
Related business
Manufacturer
OKB-1
Mission
Spacecraft
Bus & Motor
ADAPTER, Unknown motor
Mass
Unknown
Launch date (UTC)
1964-07-10 (62 years ago)
Launch vehicle
Unknown
Launch site
Tyuratam Missile And Space Complex (TTMTR)
Object type
Payload
Rocket body
Debris
Shape & HBR
Unknown shape, 0.3 m
Radar Cross Section
Medium (>0.1 m² and <1 m²)

Expand to show TLE details & history
Last TLE update: 15 hours ago

TLE from 15 hours ago
0 ELEKTRON 3 DEB
1   831U 64038C   26163.80042595  .00018135  00000-0  15575-2 0  9997
2   831  60.6617 200.4719 1244923  24.3892 341.1131 12.82094806365374
Epoch: 2026-06-12T19:12Z
TLE epoch observation values (Epoch: 2026-06-12T19:12:36.802Z)
Latitude
-0°
Longitude
11.19389°
Altitude
441.289 km
Speed
8.078 km/s
True Right ascension
13h 21m 53s
True Declination
0° 00' 00"
Sunlit
Object was in full shadow at epoch
Visualization orbit readout
Latitude
Unknown
Longitude
Unknown
Altitude
Unknown
Speed
Unknown
Apparent Right ascension
Unknown
Apparent Declination
Unknown
Sunlit
N/A
Visualization observer readout
Local Sidereal Time
20:11:57
Azimuth
Unknown
Elevation
Unknown
Doppler factor
Unknown
Orbital elements
Apogee altitude
2,292.129 km
Perigee altitude
372.363 km
Semi-major axis
7,710.383 km
Eccentricity
0.12449
Inclination
60.6617°
RAAN
200.4719°
Arg. of periapsis
24.3892°
True anomaly
335.71272°
Mean anomaly
341.1131°
Eccentric anomaly
338.49874°
Mean motion
3.20575 °/min
Orbital period
112.3 mins
BSTAR
0.0015575
Loading maneuver chart data...
Computing Atmospheric mass density...
Loading historical data...
Loading historical data...
Loading historical data...
Loading historical data...
Loading historical data...
Loading historical data...
Loading historical data...

Documentation

Showing up to 5 results
|